EW7070 Weather Reports


Display with metric or nautical units.
time (UTC)temp
F
wind
direction
speed
MPH
gust
MPH
rain 1hr
in
rain 24hr
in
rain mn
in
humidity
%
barometer
mb
20260831234158 64 334 0.0 3.0 0.00 0.05 0.03 97 1010.4
20260831233631 64 334 1.0 3.0 0.00 0.06 0.03 97 1010.5
20260831233106 64 302 1.0 2.0 0.00 0.06 0.03 97 1010.8
20260831232607 64 239 0.0 2.0 0.00 0.06 0.03 97 1010.2
20260831232105 64 317 0.0 2.0 0.00 0.06 0.03 97 1010.4
20260831231602 64 317 0.0 2.0 0.00 0.06 0.03 97 1010.2
20260831231103 64 352 1.0 2.0 0.00 0.06 0.03 97 1010.1
20260831230602 64 66 1.0 2.0 0.00 0.06 0.03 97 1009.5
20260831230055 64 265 0.0 1.0 0.00 0.06 0.03 97 1009.6
20260831225758 64 265 0.0 2.0 0.00 0.06 0.03 97 1009.8
20260831225027 64 265 0.0 2.0 0.00 0.06 0.03 97 1010.0
20260831224519 65 296 0.0 1.0 0.00 0.06 0.03 97 1009.6
20260831224012 64 296 0.0 1.0 0.00 0.06 0.03 97 1009.5
20260831223445 65 296 0.0 0.0 0.00 0.07 0.03 97 1009.4
20260831223151 65 296 0.0 1.0 0.00 0.07 0.03 97 1009.6
20260831222636 64 296 0.0 2.0 0.00 0.07 0.03 97 1009.6
20260831221906 64 283 0.0 1.0 0.00 0.07 0.03 97 1009.4
20260831221405 64 197 0.0 2.0 0.00 0.07 0.03 97 1009.4
20260831220903 65 270 0.0 2.0 0.00 0.07 0.03 97 1009.5
20260831220337 65 311 0.0 2.0 0.00 0.07 0.03 96 1009.4
20260831215830 65 311 0.0 1.0 0.00 0.07 0.03 96 1009.2
20260831215559 65 311 0.0 2.0 0.00 0.07 0.03 96 1009.3
20260831214802 65 318 0.0 3.0 0.00 0.07 0.03 96 1009.4
20260831214237 65 348 0.0 3.0 0.00 0.07 0.03 96 1009.3
20260831213732 65 253 0.0 3.0 0.00 0.07 0.03 96 1008.9
20260831213221 65 286 1.0 3.0 0.00 0.07 0.03 96 1008.8
20260831212720 65 286 0.0 3.0 0.00 0.07 0.03 96 1009.0
20260831212155 65 260 0.0 4.0 0.00 0.07 0.03 96 1008.7
20260831211626 65 244 1.0 4.0 0.00 0.07 0.03 96 1008.4
20260831211125 65 271 2.0 4.0 0.00 0.07 0.03 96 1008.4
20260831210616 65 268 2.0 4.0 0.00 0.07 0.03 96 1008.5
20260831210115 65 269 2.0 3.0 0.00 0.07 0.03 95 1008.4
20260831205549 65 287 3.0 6.0 0.00 0.07 0.03 95 1008.1
20260831205249 65 256 3.0 6.0 0.00 0.07 0.03 95 1008.1
20260831204452 65 259 3.0 6.0 0.00 0.07 0.03 95 1007.7
20260831203924 65 248 2.0 8.0 0.00 0.07 0.03 95 1007.5
20260831203420 65 282 3.0 8.0 0.00 0.07 0.03 95 1007.1
20260831202912 65 249 4.0 8.0 0.00 0.07 0.03 95 1006.7
20260831202343 65 283 2.0 8.0 0.00 0.07 0.03 95 1006.7
20260831201841 65 263 2.0 4.0 0.00 0.07 0.03 95 1006.5
20260831201320 65 320 2.0 6.0 0.00 0.07 0.03 95 1006.1
20260831200706 65 206 2.0 6.0 0.00 0.07 0.03 95 1005.7
20260831200206 65 237 3.0 14.0 0.00 0.07 0.03 94 1005.6
20260831195659 65 203 4.0 14.0 0.00 0.07 0.03 95 1005.5
20260831195155 65 137 7.0 14.0 0.00 0.07 0.03 95 1005.2
20260831194653 64 112 8.0 14.0 0.00 0.07 0.03 95 1005.5
20260831194142 64 103 7.0 12.0 0.00 0.07 0.03 95 1005.8
20260831193642 64 82 7.0 11.0 0.00 0.07 0.03 95 1006.7
20260831193134 64 120 7.0 12.0 0.00 0.07 0.03 96 1007.6
20260831192632 64 90 6.0 12.0 0.00 0.07 0.03 96 1007.8
20260831192133 64 60 4.0 7.0 0.01 0.07 0.03 96 1008.5
20260831191614 64 79 3.0 7.0 0.01 0.07 0.03 96 1009.0
20260831191345 65 103 2.0 4.0 0.01 0.07 0.03 96 1009.3
20260831190613 65 103 2.0 4.0 0.01 0.07 0.03 96 1009.5
20260831190050 65 73 1.0 4.0 0.01 0.07 0.03 96 1009.6
20260831185550 65 15 2.0 4.0 0.01 0.07 0.03 96 1009.7
20260831185021 65 351 3.0 5.0 0.01 0.07 0.03 96 1009.8
20260831184453 65 353 2.0 5.0 0.01 0.07 0.03 96 1009.8
20260831183927 65 355 2.0 5.0 0.02 0.07 0.03 96 1009.8
20260831183400 65 324 2.0 6.0 0.02 0.07 0.03 96 1009.9
20260831182830 65 344 2.0 6.0 0.02 0.07 0.03 96 1010.1
20260831182327 65 295 2.0 6.0 0.01 0.06 0.03 96 1010.1
20260831181800 65 332 2.0 5.0 0.01 0.06 0.02 96 1010.2
20260831181300 65 309 2.0 4.0 0.01 0.06 0.02 96 1010.3
20260831180758 65 310 1.0 6.0 0.01 0.06 0.02 95 1010.1
20260831180529 65 351 1.0 6.0 0.01 0.06 0.02 95 1010.0
20260831175800 65 16 3.0 7.0 0.01 0.06 0.02 95 1010.0
20260831175240 65 3 3.0 7.0 0.01 0.06 0.02 95 1009.9
20260831174716 65 332 3.0 7.0 0.01 0.06 0.02 95 1009.8
20260831174207 65 281 3.0 7.0 0.00 0.05 0.01 95 1009.7
20260831173140 65 324 2.0 5.0 0.01 0.05 0.01 94 1009.4
20260831172638 65 313 1.0 4.0 0.01 0.05 0.01 94 1009.3
20260831172135 65 303 0.0 2.0 0.01 0.05 0.01 94 1009.1
20260831171617 65 303 0.0 2.0 0.01 0.05 0.01 93 1008.9
20260831171112 65 303 0.0 1.0 0.01 0.05 0.01 93 1009.0
20260831170833 65 303 1.0 3.0 0.01 0.05 0.01 94 1009.1
20260831170039 65 303 2.0 3.0 0.01 0.05 0.01 94 1009.2
20260831165750 65 270 2.0 3.0 0.01 0.05 0.01 93 1009.4
20260831165015 66 298 2.0 4.0 0.01 0.05 0.01 92 1009.5
20260831164745 66 353 1.0 4.0 0.01 0.05 0.01 92 1009.4
20260831163953 66 286 0.0 2.0 0.00 0.04 0.00 92 1009.5
20260831163450 66 249 1.0 3.0 0.00 0.04 0.00 92 1009.6
20260831162947 66 262 2.0 3.0 0.00 0.04 0.00 92 1009.6
20260831162447 66 303 1.0 3.0 0.00 0.04 0.00 92 1009.4
20260831161947 66 293 0.0 1.0 0.00 0.04 0.00 91 1009.5
20260831161942 66 293 0.0 2.0 0.00 0.04 0.00 90 1009.6
20260831161152 66 293 0.0 2.0 0.00 0.04 0.00 90 1009.5
20260831160422 66 218 0.0 0.0 0.00 0.04 0.00 90 1009.3
20260831155922 66 218 0.0 2.0 0.00 0.04 0.00 90 1009.4
20260831155353 66 223 0.0 2.0 0.00 0.04 0.00 90 1009.5
20260831154828 66 249 0.0 0.0 0.00 0.04 0.00 90 1009.3
20260831154320 66 249 0.0 2.0 0.00 0.04 0.00 90 1009.4
20260831153818 66 249 0.0 2.0 0.00 0.04 0.00 90 1009.5
20260831153319 66 249 1.0 2.0 0.00 0.04 0.00 90 1009.6
20260831153311 66 249 1.0 3.0 0.00 0.04 0.00 89 1009.5
20260831152537 66 134 2.0 6.0 0.00 0.04 0.00 89 1009.3
20260831152027 66 197 3.0 7.0 0.00 0.04 0.00 90 1009.3
20260831151232 66 93 2.0 6.0 0.00 0.04 0.00 90 1008.9
20260831150728 65 162 2.0 4.0 0.00 0.04 0.00 91 1008.8
20260831150210 65 100 3.0 5.0 0.00 0.04 0.00 90 1009.1
20260831145708 65 110 2.0 5.0 0.00 0.04 0.00 91 1009.5
20260831145438 65 109 2.0 4.0 0.00 0.04 0.00 90 1009.4
20260831144937 65 120 2.0 3.0 0.00 0.04 0.00 90 1009.6
20260831144139 65 137 2.0 5.0 0.00 0.04 0.00 90 1009.9
20260831144133 65 147 2.0 5.0 0.00 0.04 0.00 89 1010.2
20260831143113 65 132 2.0 6.0 0.00 0.04 0.00 90 1010.5
20260831142611 65 170 2.0 6.0 0.00 0.04 0.00 90 1010.5
20260831142109 65 164 3.0 10.0 0.00 0.04 0.00 89 1010.6
20260831141608 65 151 3.0 10.0 0.00 0.04 0.00 90 1010.3
20260831141108 65 133 4.0 8.0 0.00 0.04 0.00 90 1010.0
20260831140602 65 101 4.0 10.0 0.00 0.04 0.00 89 1009.8
20260831140057 65 114 4.0 10.0 0.00 0.04 0.00 89 1010.1
20260831135554 65 91 2.0 8.0 0.00 0.04 0.00 90 1010.2
20260831135049 65 139 1.0 5.0 0.00 0.04 0.00 89 1010.6
20260831135042 65 160 2.0 5.0 0.00 0.04 0.00 90 1010.3
20260831134013 65 162 1.0 4.0 0.00 0.04 0.00 90 1010.9
20260831133447 65 177 1.0 4.0 0.00 0.04 0.00 90 1011.0
20260831133148 65 131 1.0 4.0 0.00 0.04 0.00 90 1010.8
20260831132426 65 182 1.0 4.0 0.00 0.04 0.00 91 1010.6
20260831132417 65 119 1.0 4.0 0.00 0.04 0.00 91 1010.7
20260831131415 65 93 1.0 4.0 0.00 0.04 0.00 91 1010.6
20260831130914 65 113 1.0 4.0 0.00 0.04 0.00 91 1010.4
20260831130352 65 111 1.0 4.0 0.00 0.04 0.00 91 1010.5
20260831125835 65 121 2.0 4.0 0.00 0.04 0.00 91 1010.6
20260831125337 65 138 1.0 5.0 0.00 0.04 0.00 92 1010.9
20260831124809 64 106 1.0 5.0 0.00 0.04 0.00 92 1011.1
20260831124259 64 118 0.0 0.0 0.00 0.04 0.00 93 1011.2
20260831123756 64 147 0.0 0.0 0.00 0.04 0.00 94 1011.4
20260831123524 64 141 0.0 0.0 0.00 0.04 0.00 95 1011.1
20260831122752 63 158 0.0 0.0 0.00 0.04 0.00 95 1010.9
20260831122223 63 120 0.0 0.0 0.00 0.04 0.00 96 1010.8
20260831121925 63 139 0.0 0.0 0.00 0.04 0.00 97 1010.9
20260831121156 62 160 0.0 0.0 0.00 0.04 0.00 98 1010.9
20260831121149 63 177 0.0 0.0 0.00 0.04 0.00 97 1011.0
20260831120415 62 140 0.0 0.0 0.00 0.04 0.00 98 1010.9
20260831115644 62 143 0.0 0.0 0.00 0.04 0.00 98 1011.1
20260831115143 62 120 0.0 0.0 0.00 0.04 0.00 98 1011.3
20260831114644 62 120 0.0 0.0 0.00 0.04 0.00 98 1011.1
20260831114143 62 120 0.0 0.0 0.00 0.04 0.00 99 1010.9
20260831113641 62 120 0.0 0.0 0.00 0.04 0.00 98 1011.1
20260831113127 61 120 0.0 0.0 0.00 0.04 0.00 98 1011.4
20260831112629 61 120 0.0 0.0 0.00 0.04 0.00 99 1011.2
20260831112332 61 120 0.0 0.0 0.00 0.04 0.00 99 1010.9
20260831111600 61 120 0.0 0.0 0.00 0.04 0.00 98 1011.1
20260831111032 61 120 0.0 0.0 0.00 0.04 0.00 99 1011.2
20260831110504 61 114 0.0 0.0 0.00 0.04 0.00 99 1010.9
20260831105939 61 144 0.0 0.0 0.00 0.04 0.00 99 1011.0
20260831105440 60 144 0.0 0.0 0.00 0.04 0.00 99 1011.1
20260831104941 60 143 0.0 1.0 0.00 0.04 0.00 99 1010.9
20260831104713 60 244 0.0 0.0 0.00 0.04 0.00 99 1011.2
20260831103914 60 218 0.0 1.0 0.00 0.04 0.00 99 1011.1
20260831103347 60 218 0.0 1.0 0.00 0.04 0.00 99 1011.0
20260831103342 60 218 0.0 2.0 0.00 0.04 0.00 99 1011.0
20260831102329 60 143 0.0 2.0 0.00 0.04 0.00 99 1010.9
20260831102321 60 214 0.0 2.0 0.00 0.04 0.00 99 1010.9
20260831101548 60 143 0.0 2.0 0.00 0.04 0.00 99 1010.8
20260831101049 60 143 0.0 1.0 0.00 0.04 0.00 99 1010.8
20260831100317 60 32 0.0 1.0 0.00 0.04 0.00 99 1010.8
20260831100051 60 32 0.0 1.0 0.00 0.04 0.00 99 1010.9
20260831095546 60 32 0.0 1.0 0.00 0.04 0.00 99 1011.1
20260831094813 60 18 0.0 0.0 0.00 0.04 0.00 99 1010.9
20260831094259 60 6 0.0 1.0 0.00 0.04 0.00 99 1011.0
20260831093800 60 6 0.0 1.0 0.00 0.04 0.00 98 1010.8
20260831093258 60 103 0.0 1.0 0.00 0.04 0.00 98 1010.4
20260831092757 60 208 0.0 2.0 0.00 0.04 0.00 99 1010.1
20260831092519 60 208 0.0 2.0 0.00 0.04 0.00 99 1009.9
20260831091958 60 172 0.0 1.0 0.00 0.04 0.00 98 1010.1
20260831091719 60 126 0.0 1.0 0.00 0.04 0.00 98 1010.3
20260831090715 59 126 0.0 2.0 0.00 0.04 0.00 98 1009.7
20260831090214 59 119 0.0 2.0 0.00 0.04 0.00 99 1009.5
20260831085929 59 125 0.0 1.0 0.00 0.04 0.00 99 1009.7
20260831085142 59 177 0.0 0.0 0.00 0.04 0.00 99 1009.6
20260831084645 59 177 0.0 0.0 0.00 0.04 0.00 99 1009.9
20260831084117 59 177 0.0 0.0 0.00 0.04 0.00 99 1009.7
20260831083820 59 233 0.0 0.0 0.00 0.04 0.00 99 1010.0
20260831083049 59 233 0.0 0.0 0.00 0.04 0.00 99 1010.2
20260831082528 59 233 0.0 0.0 0.00 0.04 0.00 99 1010.1
20260831082008 59 233 0.0 0.0 0.00 0.04 0.00 98 1010.2
20260831081736 59 233 0.0 0.0 0.00 0.04 0.00 98 1010.2
20260831081006 59 233 0.0 0.0 0.00 0.04 0.00 98 1010.1
20260831080505 59 233 0.0 1.0 0.00 0.04 0.00 98 1010.2
20260831080219 59 233 0.0 0.0 0.00 0.04 0.00 98 1010.4
20260831075446 58 233 0.0 0.0 0.00 0.04 0.00 98 1010.5
20260831075214 58 233 0.0 0.0 0.00 0.04 0.00 98 1010.6
20260831074713 58 233 0.0 0.0 0.00 0.04 0.00 98 1010.7
20260831073942 58 233 0.0 0.0 0.00 0.04 0.00 98 1011.0
20260831073440 58 233 0.0 0.0 0.00 0.04 0.00 98 1010.7
20260831073200 58 233 0.0 0.0 0.00 0.04 0.00 98 1010.9
20260831072432 58 233 0.0 0.0 0.00 0.04 0.00 98 1011.1
20260831071911 58 233 0.0 0.0 0.00 0.04 0.00 98 1011.1
20260831071414 57 233 0.0 0.0 0.00 0.04 0.00 98 1011.0
20260831071127 57 233 0.0 0.0 0.00 0.04 0.00 98 1011.2
20260831070351 57 233 0.0 0.0 0.00 0.04 0.00 98 1011.4
20260831065850 57 233 0.0 0.0 0.00 0.04 0.00 97 1011.6
20260831065342 57 233 0.0 1.0 0.00 0.04 0.00 97 1011.5
20260831064843 57 233 0.0 1.0 0.00 0.04 0.00 97 1011.6
20260831064314 57 233 0.0 1.0 0.00 0.04 0.00 97 1011.5
20260831063743 57 141 0.0 1.0 0.00 0.04 0.00 97 1011.4
20260831063243 58 246 0.0 2.0 0.00 0.04 0.00 97 1011.5
20260831062741 58 246 1.0 2.0 0.00 0.04 0.00 97 1011.6
20260831062242 58 247 1.0 2.0 0.00 0.04 0.00 97 1011.7
20260831061733 58 169 0.0 0.0 0.00 0.04 0.00 97 1011.6
20260831061456 58 169 0.0 0.0 0.00 0.04 0.00 97 1011.5
20260831060722 58 169 0.0 3.0 0.00 0.04 0.00 98 1011.6
20260831060222 58 169 0.0 3.0 0.00 0.04 0.00 98 1011.6
20260831055950 59 169 0.0 3.0 0.00 0.04 0.00 97 1011.7
20260831055221 59 169 1.0 3.0 0.00 0.04 0.00 98 1011.8
20260831054718 59 149 1.0 2.0 0.00 0.04 0.00 98 1011.9
20260831054213 59 145 0.0 3.0 0.00 0.04 0.00 98 1012.3
20260831053711 59 299 0.0 3.0 0.00 0.04 0.00 98 1012.5
20260831053157 59 280 0.0 0.0 0.00 0.04 0.00 98 1012.9
20260831052654 58 280 0.0 0.0 0.00 0.04 0.00 97 1012.7
20260831052145 58 280 0.0 0.0 0.00 0.04 0.00 97 1012.2
20260831051645 58 280 0.0 1.0 0.00 0.04 0.00 97 1012.1
20260831051143 58 280 0.0 1.0 0.00 0.04 0.00 97 1012.0
20260831050637 58 280 0.0 1.0 0.00 0.04 0.00 96 1011.9
20260831050137 58 280 0.0 2.0 0.00 0.04 0.00 95 1011.6
20260831045638 58 280 0.0 2.0 0.00 0.04 0.00 95 1011.8
20260831045631 58 265 0.0 0.0 0.00 0.04 0.00 95 1011.8
20260831044602 58 182 0.0 0.0 0.00 0.04 0.00 95 1011.8
20260831044320 59 182 0.0 0.0 0.00 0.04 0.00 95 1012.0
20260831043544 59 182 0.0 0.0 0.00 0.04 0.00 95 1012.3
20260831043044 59 271 0.0 0.0 0.00 0.04 0.00 95 1012.5
20260831042538 59 271 0.0 0.0 0.00 0.04 0.00 95 1012.8
20260831042037 59 271 0.0 0.0 0.00 0.04 0.00 95 1013.0
20260831041539 59 271 0.0 0.0 0.00 0.04 0.00 95 1013.0
20260831041031 60 271 0.0 0.0 0.00 0.04 0.00 95 1012.9
20260831040531 60 271 0.0 2.0 0.00 0.04 0.00 95 1013.1
20260831040027 60 271 1.0 2.0 0.00 0.04 0.00 95 1012.9
20260831035526 60 289 1.0 2.0 0.00 0.04 0.00 95 1012.8
20260831035025 60 323 1.0 2.0 0.00 0.04 0.00 95 1012.3
20260831034524 61 323 1.0 4.0 0.00 0.04 0.00 95 1012.1
20260831034226 61 341 2.0 4.0 0.00 0.04 0.00 95 1012.2
20260831033455 61 12 1.0 4.0 0.00 0.04 0.00 95 1012.4
20260831032953 61 3 0.0 2.0 0.00 0.04 0.00 95 1012.8
20260831032451 61 310 0.0 2.0 0.00 0.04 0.00 94 1013.1
20260831031948 61 310 0.0 2.0 0.00 0.04 0.00 94 1012.9
20260831031443 62 310 0.0 2.0 0.00 0.04 0.00 94 1013.2
20260831030947 62 249 1.0 3.0 0.00 0.04 0.00 94 1013.2
20260831030421 62 249 2.0 4.0 0.00 0.04 0.00 94 1013.0
20260831025903 62 254 2.0 4.0 0.00 0.04 0.04 94 1013.3
20260831025402 62 235 1.0 3.0 0.00 0.04 0.04 94 1012.9
20260831024842 62 133 1.0 4.0 0.00 0.04 0.04 94 1012.8
20260831024341 62 172 2.0 4.0 0.00 0.04 0.04 94 1012.8
20260831023839 62 126 2.0 4.0 0.00 0.04 0.04 94 1012.8
20260831023608 62 124 2.0 7.0 0.00 0.04 0.04 94 1012.9
20260831022836 62 81 2.0 7.0 0.00 0.04 0.04 94 1013.6
20260831022608 63 110 3.0 7.0 0.00 0.04 0.04 94 1013.7
20260831021837 62 101 3.0 7.0 0.00 0.04 0.04 94 1013.3
20260831021336 63 89 2.0 6.0 0.00 0.04 0.04 94 1013.2
20260831021109 63 168 2.0 5.0 0.00 0.04 0.04 94 1013.2
20260831020318 63 160 3.0 6.0 0.00 0.04 0.04 94 1013.4
20260831015816 63 116 2.0 6.0 0.00 0.04 0.04 94 1013.1
20260831015305 63 148 1.0 4.0 0.00 0.04 0.04 94 1013.3
20260831014804 63 182 2.0 6.0 0.00 0.04 0.04 94 1013.3
20260831014236 63 102 3.0 6.0 0.00 0.04 0.04 94 1013.2
20260831013732 63 112 2.0 6.0 0.00 0.04 0.04 94 1013.7
20260831013223 63 122 5.0 11.0 0.00 0.04 0.04 94 1013.7
20260831012929 63 143 7.0 11.0 0.00 0.04 0.04 94 1013.6
20260831012145 63 111 6.0 10.0 0.00 0.04 0.04 95 1013.7
20260831011648 63 99 6.0 11.0 0.00 0.04 0.04 95 1013.7
20260831011131 63 148 6.0 13.0 0.00 0.04 0.04 95 1013.8
20260831010632 63 102 6.0 13.0 0.00 0.04 0.04 95 1013.9
20260831010131 63 108 6.0 13.0 0.00 0.04 0.04 95 1013.9
20260831005629 63 116 5.0 13.0 0.00 0.04 0.04 95 1013.7
20260831005127 63 115 4.0 10.0 0.00 0.04 0.04 95 1013.8
20260831004616 63 149 3.0 10.0 0.01 0.04 0.04 95 1014.0
20260831004116 63 117 2.0 8.0 0.03 0.04 0.04 95 1014.3
20260831003548 63 139 2.0 8.0 0.03 0.04 0.04 95 1014.9
20260831003045 63 123 3.0 8.0 0.03 0.04 0.04 95 1014.5
20260831002537 63 146 3.0 8.0 0.03 0.04 0.04 94 1014.4
20260831002306 63 108 5.0 10.0 0.03 0.04 0.04 94 1014.9
20260831001510 63 114 5.0 10.0 0.03 0.04 0.04 94 1014.5
20260831001006 64 110 2.0 8.0 0.03 0.04 0.04 93 1014.3
20260831000504 64 148 1.0 10.0 0.03 0.04 0.04 93 1015.0
20260830235949 64 103 2.0 10.0 0.03 0.04 0.04 93 1015.0
20260830235437 64 132 2.0 10.0 0.03 0.04 0.04 92 1014.9
20260830234936 64 107 3.0 10.0 0.03 0.04 0.04 92 1015.1
20260830234410 64 312 3.0 9.0 0.02 0.03 0.03 92 1015.5